• In Netherlands
  • List of Countries
  • For 7 days
  • Water Temperature
  • Satellite Maps
  • Weather Map
  • Weather Widgets
  • user-avatar
    Login

    Hourly Weather Silistra

    Today, 16 December, Saturday

    Time Temperature Precipitation Wind Pressure Humidity
    00:00 +9°C° 0 mm 5 mps 750 mmHg 73%
    01:00 +9°C° 0 mm 5 mps 750 mmHg 74%
    02:00 +9°C° 0 mm 5 mps 750 mmHg 76%
    03:00 +9°C° 0 mm 5 mps 749 mmHg 78%
    04:00 +9°C° 0 mm 5 mps 749 mmHg 80%
    05:00 +9°C° 0 mm 5 mps 749 mmHg 82%
    06:00 +9°C° 0 mm 5 mps 749 mmHg 82%
    07:00 +9°C° 0 mm 5 mps 749 mmHg 82%
    08:00 +9°C° 0 mm 5 mps 749 mmHg 82%
    09:00 +10°C° 0 mm 5 mps 749 mmHg 75%
    10:00 +13°C° 0 mm 5 mps 749 mmHg 68%
    11:00 +14°C° 0 mm 5 mps 749 mmHg 61%
    12:00 +15°C° 0 mm 5 mps 749 mmHg 57%
    13:00 +16°C° 0 mm 5 mps 749 mmHg 54%
    14:00 +17°C° 0 mm 5 mps 749 mmHg 51%
    15:00 +17°C° 0 mm 4 mps 749 mmHg 56%
    16:00 +14°C° 0 mm 3 mps 749 mmHg 60%
    17:00 +14°C° 0 mm 2 mps 750 mmHg 65%
    18:00 +13°C° 0 mm 2 mps 750 mmHg 67%
    19:00 +13°C° 0 mm 1 mps 750 mmHg 68%
    20:00 +12°C° 0 mm 1 mps 750 mmHg 70%
    21:00 +12°C° 0.3 mm 1 mps 751 mmHg 74%
    22:00 +12°C° 0.3 mm 1 mps 751 mmHg 78%
    23:00 +12°C° 0.3 mm 1 mps 751 mmHg 82%

    Tomorrow, 17 December, Sunday

    Time Temperature Precipitation Wind Pressure Humidity
    00:00 +10°C° 0.7 mm 2 mps 751 mmHg 85%
    01:00 +10°C° 0.7 mm 2 mps 751 mmHg 88%
    02:00 +9°C° 0.7 mm 3 mps 751 mmHg 91%
    03:00 +8°C° 1.5 mm 4 mps 751 mmHg 90%
    04:00 +7°C° 1.5 mm 5 mps 751 mmHg 89%
    05:00 +7°C° 1.5 mm 6 mps 751 mmHg 88%
    06:00 +5°C° 0.7 mm 6 mps 752 mmHg 85%
    07:00 +5°C° 0.7 mm 6 mps 752 mmHg 82%
    08:00 +4°C° 0.7 mm 6 mps 753 mmHg 78%
    09:00 +4°C° 0.2 mm 6 mps 753 mmHg 77%
    10:00 +4°C° 0.2 mm 6 mps 754 mmHg 76%
    11:00 +5°C° 0.2 mm 5 mps 754 mmHg 74%
    12:00 +5°C° 0.1 mm 5 mps 754 mmHg 73%
    13:00 +5°C° 0.1 mm 5 mps 754 mmHg 72%
    14:00 +6°C° 0.1 mm 5 mps 754 mmHg 71%
    15:00 +5°C° 0.2 mm 5 mps 755 mmHg 71%
    16:00 +5°C° 0.2 mm 4 mps 755 mmHg 71%
    17:00 +5°C° 0.2 mm 4 mps 755 mmHg 71%
    18:00 +4°C° 0.3 mm 4 mps 756 mmHg 71%
    19:00 +4°C° 0.3 mm 4 mps 756 mmHg 71%
    20:00 +4°C° 0.3 mm 4 mps 757 mmHg 71%
    21:00 +4°C° 0.3 mm 3 mps 758 mmHg 72%
    22:00 +3°C° 0.3 mm 3 mps 758 mmHg 72%
    23:00 +3°C° 0.3 mm 3 mps 759 mmHg 73%

    Day after tomorrow, 18 December, Monday

    Time Temperature Precipitation Wind Pressure Humidity
    00:00 +3°C° 0.1 mm 3 mps 759 mmHg 73%
    01:00 +3°C° 0.1 mm 3 mps 759 mmHg 74%
    02:00 +2°C° 0.1 mm 3 mps 760 mmHg 74%
    03:00 +3°C° 0.1 mm 2 mps 760 mmHg 74%
    04:00 +3°C° 0.1 mm 2 mps 760 mmHg 74%
    05:00 +3°C° 0.1 mm 2 mps 760 mmHg 74%
    06:00 +2°C° 0.1 mm 2 mps 761 mmHg 74%
    07:00 +2°C° 0.1 mm 2 mps 761 mmHg 74%
    08:00 +2°C° 0.1 mm 2 mps 762 mmHg 74%
    09:00 +2°C° 0.1 mm 2 mps 762 mmHg 72%
    10:00 +3°C° 0.1 mm 2 mps 762 mmHg 71%
    11:00 +3°C° 0.1 mm 2 mps 762 mmHg 69%
    12:00 +3°C° 0.1 mm 2 mps 762 mmHg 68%
    13:00 +3°C° 0.1 mm 2 mps 762 mmHg 67%
    14:00 +4°C° 0.1 mm 2 mps 761 mmHg 66%
    15:00 +4°C° 0.1 mm 2 mps 761 mmHg 69%
    16:00 +3°C° 0.1 mm 2 mps 761 mmHg 71%
    17:00 +3°C° 0.1 mm 2 mps 761 mmHg 73%
    18:00 +3°C° 0.3 mm 2 mps 761 mmHg 74%
    19:00 +3°C° 0.3 mm 2 mps 762 mmHg 75%
    20:00 +3°C° 0.3 mm 2 mps 762 mmHg 76%
    21:00 +3°C° 0.3 mm 2 mps 762 mmHg 77%
    22:00 +2°C° 0.3 mm 2 mps 763 mmHg 79%
    23:00 +2°C° 0.3 mm 2 mps 763 mmHg 81%

    19 December, Tuesday

    Time Temperature Precipitation Wind Pressure Humidity
    00:00 +1°C° 0.2 mm 3 mps 763 mmHg 82%
    01:00 +1°C° 0.2 mm 3 mps 764 mmHg 83%
    02:00 +1°C° 0.2 mm 3 mps 764 mmHg 84%
    03:00 0°C° 0.2 mm 3 mps 764 mmHg 85%
    04:00 0°C° 0.2 mm 3 mps 764 mmHg 86%
    05:00 -1°C° 0.2 mm 4 mps 765 mmHg 87%
    06:00 -1°C° 0.2 mm 4 mps 765 mmHg 88%
    07:00 -1°C° 0.2 mm 4 mps 766 mmHg 88%
    08:00 -2°C° 0.2 mm 4 mps 766 mmHg 89%
    09:00 -1°C° 0.1 mm 4 mps 767 mmHg 88%
    10:00 -1°C° 0.1 mm 4 mps 768 mmHg 87%
    11:00 -1°C° 0.1 mm 4 mps 768 mmHg 85%
    12:00 -1°C° 0.1 mm 4 mps 768 mmHg 83%
    13:00 -1°C° 0.1 mm 4 mps 768 mmHg 81%
    14:00 -1°C° 0.1 mm 4 mps 768 mmHg 79%
    15:00 0°C° 0 mm 3 mps 769 mmHg 80%
    16:00 -1°C° 0 mm 3 mps 769 mmHg 82%
    17:00 -1°C° 0 mm 2 mps 769 mmHg 84%
    18:00 -1°C° 0 mm 2 mps 770 mmHg 86%
    19:00 -2°C° 0 mm 2 mps 770 mmHg 88%
    20:00 -2°C° 0 mm 2 mps 771 mmHg 90%
    21:00 -2°C° 0 mm 2 mps 771 mmHg 90%
    22:00 -2°C° 0 mm 2 mps 771 mmHg 91%
    23:00 -2°C° 0 mm 2 mps 771 mmHg 92%

    20 December, Wednesday

    Time Temperature Precipitation Wind Pressure Humidity
    00:00 -2°C° 0 mm 2 mps 771 mmHg 91%
    01:00 -2°C° 0 mm 2 mps 772 mmHg 90%
    02:00 -2°C° 0 mm 2 mps 772 mmHg 89%
    03:00 -2°C° 0 mm 2 mps 772 mmHg 87%
    04:00 -3°C° 0 mm 2 mps 772 mmHg 86%
    05:00 -3°C° 0 mm 2 mps 772 mmHg 84%
    06:00 -1°C° 0 mm 1 mps 772 mmHg 82%
    07:00 -1°C° 0 mm 1 mps 772 mmHg 81%
    08:00 -1°C° 0 mm 1 mps 773 mmHg 79%
    09:00 0°C° 0 mm 1 mps 773 mmHg 74%
    10:00 +1°C° 0 mm 1 mps 773 mmHg 70%
    11:00 -1°C° 0 mm 2 mps 773 mmHg 65%
    12:00 +1°C° 0 mm 2 mps 773 mmHg 65%
    13:00 +1°C° 0 mm 2 mps 772 mmHg 66%
    14:00 +1°C° 0 mm 2 mps 772 mmHg 67%
    15:00 +1°C° 0 mm 2 mps 772 mmHg 71%
    16:00 -1°C° 0 mm 2 mps 772 mmHg 76%
    17:00 -1°C° 0 mm 2 mps 772 mmHg 81%
    18:00 -2°C° 0 mm 2 mps 772 mmHg 83%
    19:00 -2°C° 0 mm 2 mps 772 mmHg 85%
    20:00 -2°C° 0 mm 2 mps 772 mmHg 87%
    21:00 -3°C° 0 mm 2 mps 772 mmHg 87%
    22:00 -3°C° 0 mm 2 mps 772 mmHg 88%
    23:00 -4°C° 0 mm 3 mps 772 mmHg 88%

    21 December, Thursday

    Time Temperature Precipitation Wind Pressure Humidity
    00:00 -4°C° 0 mm 3 mps 771 mmHg 87%
    01:00 -4°C° 0 mm 3 mps 771 mmHg 86%
    02:00 -4°C° 0 mm 4 mps 771 mmHg 85%
    03:00 -4°C° 0 mm 4 mps 770 mmHg 82%
    04:00 -4°C° 0 mm 4 mps 770 mmHg 80%
    05:00 -5°C° 0 mm 5 mps 769 mmHg 77%
    06:00 -5°C° 0 mm 5 mps 769 mmHg 76%
    07:00 -5°C° 0 mm 5 mps 769 mmHg 76%
    08:00 -5°C° 0 mm 6 mps 768 mmHg 75%
    09:00 -4°C° 0 mm 6 mps 768 mmHg 72%
    10:00 -3°C° 0 mm 7 mps 768 mmHg 69%
    11:00 -2°C° 0 mm 7 mps 767 mmHg 66%
    12:00 -1°C° 0 mm 7 mps 767 mmHg 64%
    13:00 -1°C° 0 mm 7 mps 766 mmHg 63%
    14:00 0°C° 0 mm 7 mps 765 mmHg 62%
    15:00 -1°C° 0 mm 7 mps 765 mmHg 65%
    16:00 -1°C° 0 mm 6 mps 765 mmHg 68%
    17:00 0°C° 0 mm 5 mps 765 mmHg 72%
    18:00 0°C° 0 mm 5 mps 765 mmHg 75%
    19:00 -1°C° 0 mm 4 mps 765 mmHg 78%
    20:00 -1°C° 0 mm 4 mps 765 mmHg 81%
    21:00 -1°C° 0 mm 4 mps 765 mmHg 83%
    22:00 -1°C° 0 mm 4 mps 765 mmHg 85%
    23:00 -2°C° 0 mm 4 mps 765 mmHg 88%
    Show more

    XHprof extension not loaded